Flag for Argentina Weather past 2 weeks in Tucumán, Tucumán, Argentina

Now
59 °F

Clear.


Feels Like: 57 °F
Forecast: 46 / 82 °F
Wind: 12 mph from North

Location: Tucuman Aerodrome

Current Time: Jul 28, 2015 at 2:59:10 AM

Latest Report: Jul 28, 2015 at 1:00 AM


Visibility: 4 mi

Pressure: 29.74 "Hg

Humidity: 82%

Dew point: 54 °F

Location of TucumánLocation

Historic Weather in Tucumán — Graph

°F

Tucumán temperature yesterday

Maximum temperature yesterday: 79 °F (at 3:00 PM)
Minimum temperature yesterday: 48 °F (at 4:00 AM)
Average temperature yesterday: 62 °F

Past Weeks' High & Low Weather Summary

 TemperatureHumidityPressure
High79 °F (Jul 27, 3:00 PM)94% (Jul 14, 12:00 PM)30.42 "Hg (Jul 14, 12:00 PM)
Low37 °F (Jul 14, 8:00 AM)31% (Jul 24, 3:00 PM)29.71 "Hg (Jul 13, 3:00 AM)
Average56 °F68%30.08 "Hg
* Reported Jul 13 2:00 AM — Jul 28 1:00 AM, Tucumán, Weather by CustomWeather, © 2015

Note: Actual official high and low records may vary slightly from our data, if they occured in-between our weather recording intervals... More about our weather records

Advertising

Tucumán weather history for previous 24 hours

 ConditionsComfort  
Time TempWeatherWind HumidityBarometerVisibility
1:00 AM
Tue, Jul 28
59 °FClear.12 mph82%29.74 "Hg4 mi
12:00 AM63 °FClear.9 mph73%29.77 "Hg3 mi
11:00 PM
Mon, Jul 27
63 °FClear.2 mph73%29.77 "Hg2 mi
10:00 PM61 °FClear.2 mph83%29.77 "Hg2 mi
9:00 PM64 °FClear.7 mph73%29.77 "Hg2 mi
8:00 PM68 °FClear.5 mph64%29.77 "Hg2 mi
7:00 PM73 °FClear.5 mph61%29.77 "Hg2 mi
6:00 PM75 °FClear.3 mph54%29.77 "Hg4 mi
5:00 PM79 °FClear.No wind48%29.77 "Hg4 mi
4:00 PM79 °FClear.No wind42%29.77 "Hg4 mi
3:00 PM79 °FPleasantly warm.6 mph39%29.77 "Hg4 mi
2:00 PM77 °FPleasantly warm.9 mph39%29.80 "Hg4 mi
1:00 PM73 °FMild.6 mph50%29.83 "Hg4 mi
12:00 PM72 °FMild.6 mph50%29.86 "Hg4 mi
11:00 AM66 °FMild.3 mph60%29.89 "Hg4 mi
10:00 AM59 °FCool.2 mph72%29.89 "Hg5 mi
9:00 AM54 °FCool.12 mph77%29.89 "Hg5 mi
8:00 AM50 °FCool.9 mph88%29.86 "Hg5 mi
7:00 AM52 °FClear.6 mph82%29.83 "Hg5 mi
6:00 AM52 °FClear.7 mph82%29.83 "Hg5 mi
5:00 AM50 °FClear.5 mph88%29.83 "Hg4 mi
4:00 AM48 °FClear.3 mph94%29.83 "Hg4 mi
3:00 AM50 °FClear.5 mph88%29.83 "Hg4 mi
2:00 AM50 °FClear.7 mph88%29.86 "Hg4 mi
Weather by CustomWeather, © 2015

See weather overviewHow to use our weather pages